DELTA 1 R/B, 9063

Orbit data source: Space-Track

DELTA 1 R/B, 9063 is space debris in SSO originally from a launch on Thu, 29 Jul 1976 UTC launched from the Air Force Western Test Range (AFWTR). Debris objects in space refer to the collection of defunct objects orbiting the Earth. Examples of debris include non-operational satellites, rocket bodies, and fragments generated from explosions, collisions, or faulty payload assembly.

Loading next visibility...
Identifier
9063, 1976-077B
Orbit
SSO
Country
Flag of USUS
Related business
Manufacturer
MDAC-HB
Mission
Spacecraft
Bus & Motor
DELTA/TR-201, Unknown motor
Mass
845 kg wet, 845 kg dry
Launch date (UTC)
1976-07-29 (50 years ago)
Launch vehicle
Unknown
Launch site
Air Force Western Test Range (AFWTR)
Object type
Payload
Rocket body
Debris
Shape & HBR
CYL + SKIRT + NOZZLE, 1.1 m
Radar Cross Section
Large (>1 m²)

Expand to show TLE details & history
Last TLE update: 9 hours ago

TLE from 9 hours ago
0 DELTA 1 R/B
1  9063U 76077B   26256.02374243 -.00000042  00000-0  28174-4 0  9994
2  9063 102.0509 250.6788 0060971 221.8481 149.9467 12.50508343330087
Epoch: 2026-09-13T00:34Z
TLE epoch observation values (Epoch: 2026-09-13T00:34:11.345Z)
Latitude
11.83298°
Longitude
-112.44385°
Altitude
1,505.638 km
Speed
7.094 km/s
True Right ascension
16h 32m 30s
True Declination
11° 46' 14"
Sunlit
Object was in daylight at epoch
Visualization orbit readout
Latitude
Unknown
Longitude
Unknown
Altitude
Unknown
Speed
Unknown
Apparent Right ascension
Unknown
Apparent Declination
Unknown
Sunlit
N/A
Visualization observer readout
Local Sidereal Time
01:48:50
Azimuth
Unknown
Elevation
Unknown
Doppler factor
Unknown
Orbital elements
Apogee altitude
1,507.723 km
Perigee altitude
1,412.144 km
Semi-major axis
7,838.07 km
Eccentricity
0.0061
Inclination
102.0509°
RAAN
250.6788°
Arg. of periapsis
221.8481°
True anomaly
150.29431°
Mean anomaly
149.9467°
Eccentric anomaly
150.12073°
Mean motion
3.12773 °/min
Orbital period
115.1 mins
BSTAR
0.000028174
Loading maneuver chart data...
Computing Atmospheric mass density...
Loading historical data...
Loading historical data...
Loading historical data...
Loading historical data...
Loading historical data...
Loading historical data...
Loading historical data...

Documentation

Showing up to 5 results
|